User: anonymous   Login
Location: Unspecified
(0.0000°N, 0.0000°E)
Time: 00:04:30
(UTC+00:00)
Language:

STARLINK-1008 - Orbit

View from above orbital plane
View from above orbital plane
View from above satellite
View from above satellite

Ground track
Ground track

The orbit data is extracted from the following two-line orbital elements,

1 44714C 19074B   20057.85772881 -.01017655  00000-0 -19770-1 0   578
2 44714  53.0075 358.4335 0001129  68.6058 298.1374 15.48050786    18
Epoch (UTC): 26 February 2020 20:35:07
Eccentricity: 0.0001129
inclination: 53.0075°
perigee height: 421 km
apogee height: 423 km
right ascension of ascending node: 358.4335°
argument of perigee: 68.6058°
revolutions per day: 15.48050786
mean anomaly at epoch: 298.1374°
orbit number at epoch: 1

The dashed part of the orbit path shows where the satellite is in the earth's shadow,  

DLR